Location: Unspecified
(43.8044°N, 11.0278°E)
Time: 16:13:07
(UTC+02:00)

Resurs 1-4 Rocket - Visible Passes

Search period start: 30 March 2015 00:00
Search period end: 09 April 2015 00:00
Orbit: 800 x 815 km, 98.4° (Epoch: 29 March)

Date Brightness Start Highest point End Pass type
(mag) Time Alt. Az. Time Alt. Az. Time Alt. Az.
30 Mar 3.6 04:14:11 10° NNE 04:18:52 32° E 04:21:45 20° SE visible
30 Mar 2.8 05:54:02 10° N 05:58:46 34° WNW 06:02:51 13° SW visible
31 Mar 4.3 03:50:25 10° NE 03:54:08 20° E 03:57:07 13° SE visible
31 Mar 2.2 05:29:17 10° N 05:34:25 55° WNW 05:38:13 18° SW visible
01 Apr 4.7 03:27:37 10° ENE 03:29:16 12° E 03:31:15 10° ESE visible
01 Apr 2.0 05:04:42 10° NNE 05:10:00 89° WNW 05:13:35 21° SSW visible
02 Apr 2.6 04:40:19 10° NNE 04:45:29 56° E 04:48:57 21° S visible
02 Apr 3.4 06:21:06 10° NNW 06:25:00 21° WNW 06:28:47 10° WSW visible
03 Apr 3.5 04:16:08 10° NNE 04:20:52 34° E 04:24:19 17° SSE visible
03 Apr 2.9 05:56:04 10° N 06:00:44 33° WNW 06:05:20 10° SW visible
04 Apr 4.2 03:52:18 10° NE 03:56:09 21° E 03:59:40 12° SE visible
04 Apr 2.3 05:31:18 10° N 05:36:24 52° WNW 05:40:46 14° SW visible
05 Apr 4.7 03:29:18 10° ENE 03:31:18 12° E 03:33:36 10° ESE visible
05 Apr 2.0 05:06:42 10° NNE 05:11:59 85° WNW 05:16:08 17° SSW visible
06 Apr 2.5 04:42:17 10° NNE 04:47:29 59° E 04:51:30 17° S visible
07 Apr 3.4 04:18:05 10° NNE 04:22:53 36° E 04:26:51 14° SSE visible
07 Apr 2.9 05:58:05 10° N 06:02:42 31° WNW 06:07:14 10° SW visible
08 Apr 4.2 03:54:11 10° NE 03:58:10 22° E 04:02:12 10° SE visible
08 Apr 2.3 05:33:18 10° N 05:38:22 50° WNW 05:43:18 10° SW visible
